Location: Franzen
(48.6167°N, 15.3833°E)
Time: 04:20:34
(UTC+00:00)

Altair - Pass Details

Date: 13 August 2021
Orbit: 1501 x 1682 km, 47.2° (Epoch: 21 September)

Event Time Altitude Azimuth Distance (km) Brightness Sun altitude
Rises 01:03:38 0° 275° (W) 4,766 9.8 -21.3°
Reaches altitude 10° 01:06:45 10° 275° (W) 3,757 9.3 -21.1°
Maximum altitude 01:16:13 80° 190° (S) 1,550 7.3 -20.2°
Drops below altitude 10° 01:25:24 10° 106° (ESE) 3,656 9.7 -19.3°
Sets 01:28:24 0° 105° (ESE) 4,631 10.3 -19.0°
